Brainerd, MN

7:11 AM CDT on April 25, 2017 (GMT -0500)
Brainerd-Crow Wing County Regional

Weather History for KBRD - December, 2012

Change the Weather History Date:

Thursday, December 6, 2012

  Actual Average Record
Temperature  
Mean Temperature 31 °F -  
Max Temperature 41 °F 27 °F 44 °F (1963)
Min Temperature 21 °F 3 °F -22 °F (1955)
Degree Days  
Heating Degree Days 34    
Moisture  
Dew Point 23 °F    
Average Humidity 68    
Maximum Humidity 78    
Minimum Humidity 51    
Precipitation  
Precipitation 0.00 in - - ()
Sea Level Pressure  
Sea Level Pressure 29.87 in    
Wind  
Wind Speed 12 mph (West)    
Max Wind Speed 16 mph    
Max Gust Speed 26 mph    
Visibility 10 miles    
Events Rain    
Averages and records for this station are not official NWS values.
T = Trace of Precipitation, MM = Missing Value Source: NWS Daily Summary

Daily Weather History Graph

Daily Weather History Graph

Search for Another Location

Airport or City:

Trip Planner

Search our weather history database for the weather conditions in past years. The results will help you decide how hot, cold, wet, or windy it might be!

Date:

Astronomy

Dec. 06, 2012 Rise Set
Actual Time 7:45 AM CST 4:29 PM CST
Civil Twilight 7:11 AM CST 5:04 PM CST
Nautical Twilight 6:33 AM CST 5:42 PM CST
Astronomical Twilight 5:56 AM CST 6:18 PM CST
Moon No Moon Rise 12:18 PM CST (12/6)
Length of Visible Light 9h 53m
Length of Day
8h 44m
Waning Gibbous, 49% of the Moon is Illuminated
Dec 6
Waning Gibbous
Dec 13
New
Dec 19
First Quarter
Dec 28
Full
Jan 4
Last Quarter

Hourly Weather History & Observations

Time (CST) Temp. Windchill Dew Point Humidity Pressure Visibility Wind Dir Wind Speed Gust Speed Precip Events Conditions
12:53 AM 41.0 °F 32.8 °F 24.1 °F 51% 29.78 in 10.0 mi South 16.1 mph 23.0 mph N/A   Mostly Cloudy
1:53 AM 41.0 °F 33.5 °F 25.0 °F 53% 29.78 in 10.0 mi South 13.8 mph 26.5 mph N/A   Overcast
2:53 AM 39.9 °F 33.9 °F 28.0 °F 63% 29.77 in 10.0 mi South 9.2 mph - 0.00 in Rain Light Rain
3:53 AM 39.9 °F 33.9 °F 28.9 °F 65% 29.75 in 10.0 mi SSW 9.2 mph - 0.00 in   Overcast
4:53 AM 39.0 °F 31.8 °F 28.9 °F 67% 29.75 in 10.0 mi SSW 11.5 mph - N/A   Scattered Clouds
5:53 AM 36.0 °F 29.0 °F 28.9 °F 76% 29.74 in 10.0 mi SSW 9.2 mph - N/A   Clear
6:53 AM 36.0 °F 29.0 °F 28.0 °F 73% 29.75 in 10.0 mi West 9.2 mph - N/A   Clear
7:53 AM 36.0 °F 29.0 °F 27.0 °F 70% 29.78 in 10.0 mi West 9.2 mph - N/A   Clear
8:19 AM 35.6 °F 27.1 °F 26.6 °F 70% 29.74 in 10.0 mi West 12.7 mph 19.6 mph N/A   Mostly Cloudy
8:53 AM 36.0 °F 29.0 °F 27.0 °F 70% 29.80 in 10.0 mi WNW 9.2 mph - N/A   Overcast
9:53 AM 35.1 °F 26.9 °F 25.0 °F 67% 29.83 in 10.0 mi WNW 11.5 mph - N/A   Overcast
10:53 AM 35.1 °F 27.4 °F 26.1 °F 70% 29.85 in 10.0 mi West 10.4 mph - N/A   Mostly Cloudy
11:53 AM 34.0 °F 26.0 °F 24.1 °F 67% 29.85 in 10.0 mi NW 10.4 mph - N/A   Overcast
12:53 PM 34.0 °F 25.0 °F 23.0 °F 64% 29.86 in 10.0 mi WNW 12.7 mph - N/A   Overcast
1:53 PM 33.1 °F 23.4 °F 23.0 °F 66% 29.88 in 10.0 mi NW 13.8 mph - N/A   Overcast
2:53 PM 32.0 °F 21.2 °F 21.9 °F 66% 29.90 in 10.0 mi WNW 16.1 mph 20.7 mph N/A   Overcast
3:53 PM 30.9 °F 21.7 °F 21.0 °F 67% 29.93 in 10.0 mi WNW 11.5 mph 19.6 mph N/A   Overcast
4:48 PM 30.2 °F 21.9 °F 19.4 °F 64% 29.90 in 10.0 mi WNW 9.2 mph - N/A   Partly Cloudy
4:53 PM 30.0 °F 20.5 °F 19.9 °F 66% 29.94 in 10.0 mi WNW 11.5 mph - N/A   Partly Cloudy
5:53 PM 28.0 °F 19.3 °F 19.0 °F 69% 29.97 in 10.0 mi WNW 9.2 mph - N/A   Clear
7:53 PM 26.1 °F 17.6 °F 18.0 °F 71% 30.00 in 10.0 mi WNW 8.1 mph - N/A   Clear
8:53 PM 24.1 °F 17.0 °F 17.1 °F 75% 30.00 in 10.0 mi West 5.8 mph - N/A   Clear
9:53 PM 21.9 °F 14.5 °F 16.0 °F 78% 30.02 in 10.0 mi WSW 5.8 mph - N/A   Clear
10:53 PM 24.1 °F 12.0 °F 18.0 °F 77% 30.02 in 10.0 mi NW 13.8 mph 18.4 mph N/A   Mostly Cloudy
11:11 PM 24.8 °F 15.3 °F 17.6 °F 74% 29.97 in 10.0 mi NNW 9.2 mph - N/A   Partly Cloudy
11:53 PM 25.0 °F 16.3 °F 18.0 °F 75% 30.03 in 10.0 mi NNW 8.1 mph - N/A   Mostly Cloudy